Groton, CT

3:52 PM EDT on October 17, 2017 (GMT -0400)
Groton-New London

Weather History for KGON - June, 2013

Change the Weather History Date:

Wednesday, June 12, 2013

  Actual Average Record
Temperature  
Mean Temperature 67 °F -  
Max Temperature 73 °F 74 °F 92 °F (1973)
Min Temperature 59 °F 53 °F 39 °F (1972)
Cooling Degree Days 2    
Growing Degree Days 17 (Base 50)    
Moisture  
Dew Point 55 °F    
Average Humidity 66    
Maximum Humidity 87    
Minimum Humidity 48    
Precipitation  
Precipitation 0.00 in - - ()
Sea Level Pressure  
Sea Level Pressure 29.71 in    
Wind  
Wind Speed 10 mph (NW)    
Max Wind Speed 24 mph    
Max Gust Speed 33 mph    
Visibility 10 miles    
Events      
Averages and records for this station are not official NWS values.
T = Trace of Precipitation, MM = Missing Value Source: NWS Daily Summary

Daily Weather History Graph

Daily Weather History Graph

Search for Another Location

Airport or City:

Trip Planner

Search our weather history database for the weather conditions in past years. The results will help you decide how hot, cold, wet, or windy it might be!

Date:

Astronomy

Jun. 12, 2013 Rise Set
Actual Time 5:14 AM EDT 8:21 PM EDT
Civil Twilight 4:40 AM EDT 8:55 PM EDT
Nautical Twilight 3:57 AM EDT 9:39 PM EDT
Astronomical Twilight 3:06 AM EDT 10:30 PM EDT
Moon 8:52 AM EDT (6/12) 10:54 PM EDT (6/12)
Length of Visible Light 16h 15m
Length of Day
15h 07m
Waxing Crescent, 14% of the Moon is Illuminated
Jun 12
Waxing Crescent
Jun 16
First Quarter
Jun 23
Full
Jun 30
Last Quarter
Jul 8
New

Hourly Weather History & Observations

Time (EDT) Temp. Dew Point Humidity Pressure Visibility Wind Dir Wind Speed Gust Speed Precip Events Conditions
12:56 AM 66.0 °F 62.1 °F 87% 29.63 in 10.0 mi WNW 8.1 mph - N/A   Overcast
1:56 AM 64.9 °F 59.0 °F 81% 29.62 in 10.0 mi West 6.9 mph - N/A   Clear
2:56 AM 64.0 °F 59.0 °F 84% 29.62 in 10.0 mi West 5.8 mph - N/A   Clear
3:56 AM 63.0 °F 57.0 °F 81% 29.62 in 10.0 mi WNW 9.2 mph - N/A   Scattered Clouds
4:56 AM 61.0 °F 57.0 °F 87% 29.64 in 10.0 mi Calm Calm - N/A   Clear
5:56 AM 61.0 °F 55.9 °F 83% 29.67 in 10.0 mi West 9.2 mph - N/A   Clear
6:56 AM 63.0 °F 54.0 °F 72% 29.68 in 10.0 mi WNW 9.2 mph - N/A   Mostly Cloudy
7:56 AM 64.9 °F 55.0 °F 70% 29.68 in 10.0 mi WNW 8.1 mph - N/A   Mostly Cloudy
8:56 AM 66.0 °F 54.0 °F 65% 29.68 in 10.0 mi WNW 18.4 mph 29.9 mph N/A   Scattered Clouds
9:56 AM 68.0 °F 53.1 °F 59% 29.67 in 10.0 mi NW 23.0 mph 33.4 mph N/A   Partly Cloudy
10:56 AM 70.0 °F 54.0 °F 57% 29.69 in 10.0 mi NW 17.3 mph 28.8 mph N/A   Mostly Cloudy
11:56 AM 72.0 °F 54.0 °F 53% 29.69 in 9.0 mi WNW 24.2 mph 31.1 mph N/A   Mostly Cloudy
12:56 PM 70.0 °F 54.0 °F 57% 29.71 in 9.0 mi NW 23.0 mph 32.2 mph N/A   Scattered Clouds
1:56 PM 73.0 °F 53.1 °F 49% 29.71 in 9.0 mi NW 18.4 mph 28.8 mph N/A   Mostly Cloudy
2:56 PM 71.1 °F 52.0 °F 51% 29.73 in 9.0 mi NNW 15.0 mph 28.8 mph N/A   Overcast
3:56 PM 73.0 °F 53.1 °F 49% 29.73 in 10.0 mi NW 16.1 mph 25.3 mph N/A   Overcast
4:56 PM 73.0 °F 52.0 °F 48% 29.73 in 8.0 mi NW 17.3 mph 23.0 mph N/A   Mostly Cloudy
5:56 PM 71.1 °F 52.0 °F 51% 29.76 in 10.0 mi NNW 15.0 mph 21.9 mph N/A   Partly Cloudy
6:56 PM 72.0 °F 54.0 °F 53% 29.77 in 10.0 mi NW 8.1 mph - N/A   Mostly Cloudy
7:56 PM 68.0 °F 53.1 °F 59% 29.79 in 10.0 mi NNW 6.9 mph - N/A   Clear
8:56 PM 64.0 °F 54.0 °F 70% 29.81 in 10.0 mi Calm Calm - N/A   Clear
9:56 PM 64.0 °F 53.1 °F 67% 29.83 in 10.0 mi WNW 5.8 mph - N/A   Clear
10:56 PM 62.1 °F 53.1 °F 72% 29.82 in 10.0 mi North 3.5 mph - N/A   Clear
11:56 PM 59.0 °F 54.0 °F 83% 29.83 in 10.0 mi NNE 4.6 mph - N/A   Clear